Location: Unspecified
(0.0000°N, 0.0000°E)
Time: 03:41:47
(UTC+00:00)

ESSA 4 - Pass Details

Date: 12 November 2024
Orbit: 1326 x 1439 km, 102.1° (Epoch: 03 December)

Event Time Altitude Azimuth Distance (km) Brightness Sun altitude
Rises 03:15:29 0° 144° (SE) 4,331 12.6 -35.1°
Reaches altitude 10° 03:18:31 10° 135° (SE) 3,357 12.0 -34.4°
Maximum altitude 03:25:15 34° 73° (ENE) 2,062 10.5 -32.8°
Drops below altitude 10° 03:32:01 10° 12° (NNE) 3,376 11.2 -31.3°
Enters shadow 03:34:57 - 4° (N) 4,331 11.7 -30.6°
